Location: Holiday Acres Laynes 2 Mobile Home Park
(26.7249°N, 81.8671°W)
Time: 16:28:25
(UTC+00:00)

Cosmos 1689 Rocket - Visible Passes

Search period start: 16 April 2021 00:00
Search period end: 26 April 2021 00:00
Orbit: 350 x 361 km, 97.5° (Epoch: 15 April)

Date Brightness Start Highest point End Pass type
(mag) Time Alt. Az. Time Alt. Az. Time Alt. Az.
17 Apr 1.8 00:16:26 10° NNE 00:19:15 71° ESE 00:22:01 10° S visible
18 Apr 4.1 00:43:45 10° NNW 00:46:17 30° WNW 00:48:47 10° SW visible
19 Apr 5.8 01:12:24 10° NW 01:13:12 11° WNW 01:13:59 10° W visible
21 Apr 2.9 00:33:53 10° N 00:36:37 50° WNW 00:39:19 10° SSW visible
22 Apr 5.3 01:01:36 10° NNW 01:03:27 16° WNW 01:05:18 10° WSW visible
24 Apr 1.9 00:23:48 10° N 00:26:37 88° W 00:29:23 10° SSW visible
25 Apr 4.5 00:51:01 10° NNW 00:53:22 25° WNW 00:55:44 10° SW visible
